This is the latest recevied weather packets stored in our database for station/object GCLP. If no packets are shown the sender has not sent any weather packets the latest 1 day(s).
| Time | Temp. | Humidity | Pressure | Rain* | Wind** | Luminosity | Snow |
|---|---|---|---|---|---|---|---|
| 1778103205 | - | - | 1020 hPa | - | - | - | - |
| 1778100803 | - | - | 1020 hPa | - | - | - | - |
| 1778100203 | - | - | 1020 hPa | - | - | - | - |
| 1778099604 | - | - | 1020 hPa | - | - | - | - |
| 1778095403 | 20° C | 72% | 1013 hPa | - | - | - | - |
| 1778093606 | 20° C | 72% | 1013 hPa | - | - | - | - |
| 1778093006 | 20° C | 72% | 1013 hPa | - | - | - | - |
| 1778092408 | 20° C | 72% | 1013 hPa | - | - | - | - |
| 1778091206 | 20° C | 72% | 1013 hPa | - | - | - | - |
| 1778088207 | 20.56° C | 73% | 1013 hPa | - | - | - | - |
| 1778085805 | 20.56° C | 68% | 1014 hPa | - | - | - | - |
| 1778083529 | 20.56° C | 73% | 1014 hPa | - | - | - | - |
| 1778082811 | 20.56° C | 73% | 1018 hPa | - | - | - | - |
| 1778079204 | 20.56° C | 68% | 1015 hPa | - | - | - | - |
| 1778078606 | 20.56° C | 68% | 1015 hPa | - | - | - | - |
| 1778078005 | 20.56° C | 68% | 1015 hPa | - | - | - | - |
| 1778076203 | 20.56° C | 68% | 1015 hPa | - | - | - | - |
| 1778074400 | 20.56° C | 68% | 1015 hPa | - | - | - | - |
| 1778073802 | 20.56° C | 68% | 1015 hPa | - | - | - | - |
| 1778072606 | 21.67° C | 68% | 1017 hPa | - | - | - | - |
| 1778072002 | 21.67° C | 68% | 1017 hPa | - | - | - | - |
| 1778070205 | 21.67° C | 64% | 1015 hPa | - | - | - | - |
| 1778069003 | 20.56° C | 68% | 1015 hPa | - | - | - | - |
| 1778067202 | 20.56° C | 68% | 1015 hPa | - | - | - | - |
| 1778066607 | 20.56° C | 68% | 1015 hPa | - | - | - | - |
* Rain since midnight (hover to see other rain measurements)
** Current wind speed in m/s (hover to see current wind gust speed)